Radiation Dose at Monitoring Post of Fukushima Daini Nuclear Power Station
Date,Time,MP-1(microSv/h),MP-2(microSv/h),MP-3(microSv/h),MP-4(microSv/h),MP-5(microSv/h),MP-6(microSv/h),MP-7(microSv/h),Wind Direction,Wind Velocity(m/s),Rain
2024/01/14,00:00,0.150,0.136,0.212,0.201,0.209,0.121,0.078,west-northwest,2.6,No
2024/01/14,00:10,0.150,0.136,0.211,0.202,0.207,0.120,0.078,-,CALM,No
2024/01/14,00:20,0.150,0.136,0.212,0.201,0.207,0.121,0.077,west-northwest,0.7,No
2024/01/14,00:30,0.150,0.135,0.211,0.201,0.208,0.121,0.078,west-northwest,1.5,No
2024/01/14,00:40,0.150,0.135,0.211,0.201,0.209,0.120,0.078,west-northwest,1.3,No
2024/01/14,00:50,0.150,0.136,0.212,0.200,0.208,0.121,0.078,west-northwest,1.4,No
2024/01/14,01:00,0.150,0.136,0.211,0.202,0.207,0.121,0.078,-,CALM,No
2024/01/14,01:10,0.150,0.136,0.212,0.202,0.207,0.121,0.078,-,CALM,No
2024/01/14,01:20,0.149,0.135,0.211,0.201,0.208,0.121,0.078,southwest,0.7,No
2024/01/14,01:30,0.149,0.135,0.212,0.201,0.208,0.121,0.079,west,0.9,No
2024/01/14,01:40,0.149,0.135,0.211,0.202,0.207,0.121,0.078,northwest,6.1,No
2024/01/14,01:50,0.150,0.136,0.212,0.201,0.208,0.121,0.078,northwest,7.4,No
2024/01/14,02:00,0.149,0.136,0.212,0.202,0.208,0.121,0.078,northwest,5.3,No
2024/01/14,02:10,0.150,0.135,0.211,0.201,0.208,0.121,0.078,west-northwest,2.1,No
2024/01/14,02:20,0.149,0.135,0.211,0.201,0.208,0.121,0.078,west-southwest,1.5,No
2024/01/14,02:30,0.149,0.135,0.211,0.201,0.208,0.121,0.078,west-northwest,4.2,No
2024/01/14,02:40,0.149,0.134,0.211,0.202,0.208,0.121,0.078,northwest,5.2,No
2024/01/14,02:50,0.149,0.136,0.212,0.200,0.208,0.120,0.078,northwest,3.3,No
2024/01/14,03:00,0.151,0.136,0.212,0.202,0.208,0.120,0.077,northwest,2.8,No
2024/01/14,03:10,0.149,0.136,0.211,0.202,0.207,0.121,0.078,west-northwest,3.8,No
2024/01/14,03:20,0.150,0.136,0.212,0.200,0.208,0.121,0.078,west-northwest,4.2,No
2024/01/14,03:30,0.150,0.136,0.211,0.201,0.207,0.121,0.077,west-northwest,4.9,No
2024/01/14,03:40,0.149,0.135,0.210,0.202,0.208,0.120,0.078,west-northwest,6.2,No
2024/01/14,03:50,0.150,0.135,0.211,0.201,0.207,0.120,0.077,northwest,5.8,No
2024/01/14,04:00,0.149,0.135,0.211,0.201,0.208,0.120,0.078,northwest,4.3,No
2024/01/14,04:10,0.149,0.136,0.211,0.202,0.207,0.120,0.078,northwest,4.0,No
2024/01/14,04:20,0.150,0.134,0.212,0.200,0.207,0.121,0.078,northwest,5.4,No
2024/01/14,04:30,0.150,0.135,0.211,0.199,0.208,0.120,0.077,northwest,5.5,No
2024/01/14,04:40,0.149,0.135,0.211,0.201,0.207,0.120,0.078,west-northwest,5.1,No
2024/01/14,04:50,0.149,0.135,0.211,0.200,0.206,0.120,0.078,west,5.3,No
2024/01/14,05:00,0.150,0.135,0.210,0.201,0.208,0.120,0.077,west-northwest,3.8,No
2024/01/14,05:10,0.149,0.134,0.212,0.201,0.208,0.121,0.078,northwest,1.5,No
2024/01/14,05:20,0.149,0.134,0.211,0.201,0.208,0.120,0.078,west-northwest,1.3,No
2024/01/14,05:30,0.149,0.135,0.211,0.200,0.208,0.120,0.077,west-northwest,2.5,No
2024/01/14,05:40,0.149,0.135,0.211,0.200,0.207,0.120,0.077,west-northwest,3.3,No
2024/01/14,05:50,0.150,0.135,0.211,0.200,0.207,0.121,0.077,west,2.5,No
2024/01/14,06:00,0.149,0.135,0.212,0.202,0.207,0.120,0.077,west-northwest,1.7,No
2024/01/14,06:10,0.149,0.135,0.212,0.200,0.206,0.120,0.077,west-northwest,3.5,No
2024/01/14,06:20,0.149,0.134,0.210,0.201,0.207,0.120,0.078,west-northwest,7.3,No
2024/01/14,06:30,0.149,0.135,0.210,0.201,0.208,0.120,0.078,west-northwest,6.3,No
2024/01/14,06:40,0.150,0.135,0.212,0.199,0.207,0.120,0.077,west-northwest,7.0,No
2024/01/14,06:50,0.149,0.134,0.211,0.200,0.207,0.120,0.078,west-northwest,7.5,No
2024/01/14,07:00,0.149,0.134,0.211,0.200,0.206,0.120,0.077,west-northwest,5.7,No
2024/01/14,07:10,0.149,0.135,0.210,0.202,0.206,0.120,0.078,west-northwest,7.0,No
2024/01/14,07:20,0.150,0.135,0.211,0.201,0.208,0.120,0.078,west-northwest,5.2,No
2024/01/14,07:30,0.150,0.134,0.211,0.200,0.207,0.120,0.077,west-northwest,6.1,No
2024/01/14,07:40,0.150,0.135,0.211,0.202,0.208,0.120,0.077,west,5.0,No
2024/01/14,07:50,0.149,0.135,0.212,0.201,0.208,0.120,0.076,west-northwest,6.5,No
2024/01/14,08:00,0.149,0.134,0.211,0.201,0.206,0.120,0.077,west,6.8,No
2024/01/14,08:10,0.149,0.135,0.211,0.201,0.206,0.121,0.078,west,6.5,No
2024/01/14,08:20,0.149,0.135,0.210,0.200,0.209,0.120,0.078,west,4.7,No
2024/01/14,08:30,0.149,0.136,0.210,0.199,0.207,0.120,0.078,west-northwest,4.2,No
2024/01/14,08:40,0.149,0.135,0.211,0.200,0.206,0.121,0.077,west-northwest,4.9,No
2024/01/14,08:50,0.150,0.134,0.210,0.201,0.206,0.120,0.077,west-northwest,5.5,No
2024/01/14,09:00,0.150,0.135,0.212,0.199,0.207,0.119,0.078,west,3.2,No
2024/01/14,09:10,0.149,0.135,0.211,0.199,0.207,0.120,0.077,west,4.1,No
2024/01/14,09:20,0.149,0.135,0.210,0.201,0.206,0.120,0.077,west,3.9,No
2024/01/14,09:30,0.150,0.134,0.212,0.201,0.206,0.120,0.078,west-northwest,4.6,No
2024/01/14,09:40,0.149,0.134,0.211,0.201,0.208,0.120,0.077,west-northwest,4.9,No
2024/01/14,09:50,0.149,0.135,0.210,0.201,0.207,0.120,0.077,west-northwest,4.6,No
2024/01/14,10:00,0.149,0.134,0.210,0.200,0.207,0.120,0.078,northwest,3.2,No
2024/01/14,10:10,0.147,0.134,0.210,0.200,0.207,0.120,0.077,northwest,3.1,No
2024/01/14,10:20,0.149,0.134,0.211,0.201,0.207,0.120,0.077,west-northwest,3.2,No
2024/01/14,10:30,0.148,0.134,0.210,0.200,0.208,0.120,0.077,north-northwest,2.1,No
2024/01/14,10:40,0.149,0.134,0.209,0.200,0.208,0.120,0.077,north-northwest,2.2,No
2024/01/14,10:50,0.149,0.135,0.209,0.200,0.207,0.120,0.077,-,CALM,No
2024/01/14,11:00,0.148,0.134,0.210,0.200,0.207,0.120,0.078,east-southeast,1.2,No
2024/01/14,11:10,0.149,0.134,0.210,0.199,0.207,0.119,0.077,east-southeast,1.3,No
2024/01/14,11:20,0.147,0.135,0.210,0.201,0.208,0.121,0.077,south-southeast,2.3,No
2024/01/14,11:30,0.149,0.134,0.211,0.200,0.207,0.120,0.077,south-southeast,6.2,No
2024/01/14,11:40,0.149,0.133,0.209,0.201,0.207,0.121,0.077,south-southeast,5.9,No
2024/01/14,11:50,0.149,0.134,0.210,0.201,0.207,0.121,0.078,south-southeast,5.4,No
2024/01/14,12:00,0.148,0.134,0.211,0.199,0.206,0.121,0.077,south-southeast,6.5,No
2024/01/14,12:10,0.149,0.134,0.210,0.201,0.208,0.121,0.077,south-southeast,7.8,No
2024/01/14,12:20,0.148,0.135,0.210,0.201,0.207,0.121,0.078,south-southeast,7.8,No
2024/01/14,12:30,0.148,0.135,0.212,0.200,0.208,0.121,0.078,south-southeast,6.2,No
2024/01/14,12:40,0.148,0.134,0.210,0.201,0.208,0.121,0.077,south-southeast,6.2,No
2024/01/14,12:50,0.149,0.134,0.211,0.200,0.208,0.121,0.078,south-southeast,6.5,No
2024/01/14,13:00,0.148,0.135,0.211,0.200,0.208,0.120,0.077,south-southeast,6.0,No
2024/01/14,13:10,0.148,0.135,0.210,0.201,0.208,0.121,0.078,south-southeast,6.6,No
2024/01/14,13:20,0.148,0.133,0.211,0.200,0.209,0.121,0.077,south,7.3,No
2024/01/14,13:30,0.148,0.134,0.212,0.201,0.209,0.121,0.078,south-southeast,6.9,No
2024/01/14,13:40,0.148,0.134,0.212,0.200,0.208,0.120,0.078,south-southeast,8.5,No
2024/01/14,13:50,0.149,0.135,0.211,0.203,0.210,0.120,0.078,south-southeast,6.4,No
2024/01/14,14:00,0.148,0.135,0.211,0.202,0.207,0.122,0.078,south-southeast,7.5,No
2024/01/14,14:10,0.149,0.135,0.211,0.201,0.208,0.120,0.078,south-southeast,7.7,No
2024/01/14,14:20,0.149,0.135,0.211,0.201,0.208,0.121,0.078,south,7.3,No
2024/01/14,14:30,0.149,0.135,0.211,0.202,0.206,0.121,0.077,south,5.7,No
2024/01/14,14:40,0.150,0.134,0.211,0.202,0.208,0.121,0.077,south,5.3,No
2024/01/14,14:50,0.149,0.136,0.212,0.201,0.207,0.121,0.077,south,5.5,No
2024/01/14,15:00,0.150,0.136,0.211,0.201,0.209,0.120,0.078,south-southeast,4.7,No
2024/01/14,15:10,0.149,0.135,0.212,0.201,0.208,0.122,0.077,south,4.9,No
2024/01/14,15:20,0.149,0.135,0.210,0.200,0.209,0.120,0.077,south-southwest,4.6,No
2024/01/14,15:30,0.149,0.135,0.209,0.200,0.210,0.121,0.077,south,4.8,No
2024/01/14,15:40,0.148,0.135,0.210,0.201,0.209,0.121,0.076,southwest,1.7,No
2024/01/14,15:50,0.150,0.136,0.210,0.202,0.208,0.121,0.077,south-southwest,1.0,No
2024/01/14,16:00,0.149,0.135,0.211,0.201,0.208,0.121,0.077,southwest,2.6,No
2024/01/14,16:10,0.150,0.135,0.210,0.201,0.207,0.121,0.077,southwest,2.3,No
2024/01/14,16:20,0.149,0.136,0.211,0.201,0.207,0.121,0.077,south-southwest,2.4,No
2024/01/14,16:30,0.149,0.135,0.211,0.202,0.208,0.121,0.077,south,3.4,No
2024/01/14,16:40,0.150,0.135,0.211,0.202,0.207,0.121,0.077,south,5.7,No
2024/01/14,16:50,0.148,0.135,0.211,0.202,0.207,0.121,0.077,south,7.3,No
2024/01/14,17:00,0.149,0.136,0.211,0.202,0.209,0.121,0.077,south,6.3,No
2024/01/14,17:10,0.149,0.135,0.211,0.202,0.208,0.121,0.077,south,6.2,No
2024/01/14,17:20,0.149,0.135,0.210,0.201,0.207,0.121,0.077,south,6.1,No
2024/01/14,17:30,0.148,0.136,0.211,0.202,0.208,0.122,0.078,south,5.9,No
2024/01/14,17:40,0.150,0.135,0.211,0.202,0.210,0.122,0.077,south,5.6,No
2024/01/14,17:50,0.150,0.135,0.211,0.202,0.208,0.122,0.078,south,6.0,No
2024/01/14,18:00,0.150,0.136,0.210,0.202,0.208,0.121,0.078,south,6.2,No
2024/01/14,18:10,0.149,0.135,0.212,0.201,0.208,0.120,0.077,south,5.8,No
2024/01/14,18:20,0.149,0.135,0.212,0.201,0.208,0.121,0.077,south,4.8,No
2024/01/14,18:30,0.149,0.135,0.212,0.202,0.208,0.121,0.077,south,4.3,No
2024/01/14,18:40,0.150,0.134,0.211,0.202,0.208,0.121,0.077,south,4.0,No
2024/01/14,18:50,0.149,0.135,0.212,0.202,0.208,0.120,0.077,south,4.5,No
2024/01/14,19:00,0.149,0.136,0.212,0.202,0.209,0.121,0.078,south,3.9,No
2024/01/14,19:10,0.149,0.135,0.212,0.202,0.208,0.121,0.078,south,2.8,No
2024/01/14,19:20,0.150,0.135,0.212,0.202,0.209,0.121,0.078,south,3.1,No
2024/01/14,19:30,0.151,0.136,0.212,0.201,0.208,0.121,0.077,south,4.2,No
2024/01/14,19:40,0.149,0.136,0.212,0.201,0.208,0.120,0.078,south-southwest,3.7,No
2024/01/14,19:50,0.149,0.136,0.212,0.200,0.208,0.121,0.077,south-southwest,2.6,No
2024/01/14,20:00,0.149,0.136,0.212,0.201,0.208,0.122,0.077,south-southwest,3.3,No
2024/01/14,20:10,0.149,0.136,0.211,0.203,0.208,0.122,0.078,south-southwest,4.0,No
2024/01/14,20:20,0.150,0.135,0.213,0.202,0.208,0.122,0.078,south-southwest,4.3,No
2024/01/14,20:30,0.150,0.136,0.211,0.202,0.208,0.121,0.078,southwest,3.8,No
2024/01/14,20:40,0.150,0.135,0.212,0.201,0.207,0.120,0.078,south-southwest,4.8,No
2024/01/14,20:50,0.150,0.135,0.211,0.201,0.208,0.121,0.078,southwest,4.4,No
2024/01/14,21:00,0.149,0.136,0.211,0.202,0.208,0.121,0.078,southwest,4.0,No
2024/01/14,21:10,0.150,0.136,0.211,0.202,0.208,0.121,0.077,southwest,5.1,No
2024/01/14,21:20,0.150,0.136,0.211,0.202,0.208,0.121,0.079,southwest,5.2,No
2024/01/14,21:30,0.150,0.135,0.212,0.201,0.208,0.121,0.078,southwest,3.2,No
2024/01/14,21:40,0.149,0.136,0.211,0.202,0.209,0.122,0.078,-,CALM,No
2024/01/14,21:50,0.150,0.135,0.211,0.202,0.207,0.121,0.079,south,1.1,No
2024/01/14,22:00,0.150,0.135,0.212,0.201,0.208,0.121,0.078,south-southwest,0.9,No
2024/01/14,22:10,0.150,0.136,0.212,0.203,0.208,0.121,0.079,south-southwest,1.3,No
2024/01/14,22:20,0.149,0.135,0.213,0.201,0.209,0.121,0.078,south-southeast,0.8,No
2024/01/14,22:30,0.149,0.136,0.211,0.201,0.209,0.121,0.078,west-southwest,1.2,No
2024/01/14,22:40,0.149,0.137,0.211,0.202,0.207,0.122,0.077,south-southeast,1.0,No
2024/01/14,22:50,0.150,0.136,0.212,0.201,0.209,0.121,0.078,south-southeast,2.0,No
2024/01/14,23:00,0.149,0.135,0.213,0.202,0.208,0.121,0.079,south-southwest,1.2,No
2024/01/14,23:10,0.149,0.135,0.212,0.203,0.207,0.121,0.078,southeast,0.9,No
2024/01/14,23:20,0.149,0.137,0.212,0.202,0.208,0.120,0.078,south-southeast,1.4,No
2024/01/14,23:30,0.150,0.136,0.212,0.202,0.207,0.121,0.078,south,2.1,No
2024/01/14,23:40,0.150,0.136,0.212,0.203,0.208,0.121,0.079,south-southwest,2.6,No
2024/01/14,23:50,0.150,0.136,0.212,0.203,0.209,0.122,0.079,southwest,4.0,No
